Weather History for Springfield, OH

Change the Weather History Date:

Tuesday, May 14, 2013

  Actual Average (KDAY) Record (KDAY)
Temperature  
Mean Temperature 58 °F 61 °F  
Max Temperature 77 °F 71 °F 89 °F (1962)
Min Temperature 38 °F 51 °F 36 °F (1996)
Degree Days  
Heating Degree Days 8 6  
Month to date heating degree days 100  
Since 1 July heating degree days 5551  
Cooling Degree Days 0 2  
Month to date cooling degree days 16  
Year to date cooling degree days 26  
Growing Degree Days 8 (Base 50)    
Moisture  
Dew Point 42 °F    
Average Humidity 51    
Maximum Humidity 79    
Minimum Humidity 36    
Precipitation  
Precipitation 0.00 in 0.15 in 1.17 in (1913)
Month to date precipitation 2.10  
Year to date precipitation 14.48  
Snow  
Snow 0.00 in 0.00 in 0.00 in ()
Month to date snowfall 0.0  
Since 1 July snowfall 23.3  
Snow Depth -    
Sea Level Pressure  
Sea Level Pressure 29.99 in    
Wind  
Wind Speed 9 mph (SSW)    
Max Wind Speed 18 mph    
Max Gust Speed 29 mph    
Visibility 10 miles    
Events      
T = Trace of Precipitation, MM = Missing Value Source: NWS Daily Summary

Daily Weather History Graph

Daily Weather History Graph

Search for Another Location

Airport:

Trip Planner

Search our weather history database for the weather conditions in past years. The results will help you decide how hot, cold, wet, or windy it might be!

Date:

Astronomy

May. 14, 2013 Rise Set
Actual Time 6:21 AM EDT 8:42 PM EDT
Civil Twilight 5:50 AM EDT 9:13 PM EDT
Nautical Twilight 5:13 AM EDT 9:51 PM EDT
Astronomical Twilight 4:31 AM EDT 10:32 PM EDT
Moon 9:59 AM EDT (5/14) No Moon Set
Length of Visible Light 15h 22m
Length of Day
14h 21m
Waxing Crescent, 19% of the Moon is Illuminated
May 14
Waxing Crescent
May 18
First Quarter
May 25
Full
May 31
Last Quarter
Jun 8
New

Hourly Weather History & Observations

Time (EDT) Temp. Windchill Dew Point Humidity Pressure Visibility Wind Dir Wind Speed Gust Speed Precip Events Conditions
12:56 AM 38.8 °F 36.5 °F 32.9 °F 79% 30.17 in 10.0 mi SE 3.5 mph - N/A   Clear
1:56 AM 38.8 °F 35.4 °F 32.9 °F 79% 30.15 in 10.0 mi ESE 4.6 mph - N/A   Clear
2:56 AM 43.9 °F 41.3 °F 32.0 °F 63% 30.14 in 10.0 mi South 4.6 mph - N/A   Scattered Clouds
3:56 AM 43.9 °F 40.5 °F 32.9 °F 65% 30.13 in 10.0 mi SSE 5.8 mph - N/A   Clear
4:56 AM 45.9 °F 42.3 °F 32.9 °F 61% 30.12 in 10.0 mi South 6.9 mph - N/A   Mostly Cloudy
5:56 AM 46.9 °F - 32.0 °F 56% 30.10 in 10.0 mi South 10.4 mph - N/A   Overcast
6:56 AM 47.8 °F - 32.0 °F 54% 30.12 in 10.0 mi South 8.1 mph - N/A   Overcast
7:56 AM 48.9 °F - 32.9 °F 54% 30.13 in 10.0 mi South 6.9 mph - N/A   Mostly Cloudy
8:56 AM 50.9 °F - 32.9 °F 50% 30.12 in 10.0 mi South 10.4 mph - 0.00 in   Overcast
9:56 AM 54.9 °F - 34.0 °F 45% 30.09 in 10.0 mi South 12.7 mph - N/A   Partly Cloudy
10:56 AM 61.0 °F - 34.0 °F 36% 30.05 in 10.0 mi SSW 18.4 mph 25.3 mph N/A   Clear
11:56 AM 64.9 °F - 37.9 °F 37% 30.03 in 10.0 mi SSW 12.7 mph 23.0 mph N/A   Clear
12:56 PM 66.9 °F - 41.0 °F 39% 29.98 in 10.0 mi SSW 15.0 mph 25.3 mph N/A   Clear
1:56 PM 68.9 °F - 43.9 °F 40% 29.94 in 10.0 mi SSW 16.1 mph 25.3 mph N/A   Clear
2:56 PM 70.9 °F - 45.9 °F 41% 29.91 in 10.0 mi SSW 17.3 mph 26.5 mph N/A   Partly Cloudy
3:56 PM 73.9 °F - 48.9 °F 41% 29.88 in 10.0 mi SSW 16.1 mph 28.8 mph N/A   Partly Cloudy
4:56 PM 75.9 °F - 48.9 °F 38% 29.84 in 10.0 mi SSW 17.3 mph 24.2 mph N/A   Clear
5:56 PM 77.0 °F - 50.0 °F 39% 29.85 in 10.0 mi SW 18.4 mph 24.2 mph N/A   Clear
6:56 PM 77.9 °F - 52.0 °F 40% 29.85 in 9.0 mi WSW 10.4 mph - N/A   Clear
7:56 PM 74.8 °F - 52.9 °F 46% 29.87 in 9.0 mi WSW 6.9 mph - N/A   Clear
8:56 PM 72.0 °F - 52.9 °F 51% 29.86 in 10.0 mi SSW 6.9 mph - N/A   Clear
9:56 PM 70.9 °F - 52.9 °F 53% 29.85 in 10.0 mi SW 12.7 mph - N/A   Clear
10:56 PM 70.0 °F - 54.0 °F 57% 29.84 in 10.0 mi SSW 10.4 mph - N/A   Clear
11:56 PM 66.9 °F - 54.9 °F 65% 29.85 in 10.0 mi SW 9.2 mph - N/A   Clear